Погода в Нововяткино

Россия / Тюменская область     56°35′29″N   70°26′23″E
темп.,
°C
ветер,
м/с
пор.,
м/с
влажн.,
%
обл.,
%
осадки,
мм/ч
давл.,
гПа
погр.,
м
20 сентября, пн
пн2023:00+1з61397100 0.5 1006703
02:00+2зсз81392100 0.1 1007840
05:00+2зсз81396100 0.3 1009839
08:00+2зсз71396100 0.1 1010800
11:00+3сз61196100 0.4 1013783
14:00+5сз6885100 0.4 1015923
17:00+4сз5997100 0.8 1018654
20:00+4сз5991100 0.1 1020626
21 сентября, вт
вт2123:00+3сз6997100 0.2 1021640
02:00+2сз599399 0.2 1022661
05:00+2сз5991100 0.2 1023548
08:00+3ссз588591 0.1 1024711
11:00+4сз5665100 0.3 10241274
14:00+4зсз5665100 0.0 10231081
17:00+4зсз5770100 0.0 1023961
20:00+3зсз4876100 0.0 1022559
22 сентября, ср
ср2223:00+2з4882100 0.0 1021253
02:00+2з398293 0.0 1021269
05:00+2з3881100 0.0 1020329
08:00+3зсз4893100 0.0 1020524
11:00+4сз4587100 0.1 1021741
14:00+6сз4569100 0.2 10211101
17:00+6ссз3672100 0.5 1022573
20:00+4с2486100 0.1 1023100
23 сентября, чт
чт2323:00+2с2394100 0.1 102459
02:000с339660 0.0 102564
05:00−1с349614 0.0 102767
08:00+1с35865 0.0 1028245
11:00+5с336131 0.0 10291042
14:00+7с445181 0.0 10301406
17:00+6ссв345471 0.0 1031402
20:00+2ссв237357 0.0 103261
24 сентября, пт
пт2423:00+1ссз11777 0.0 103312
02:00+1зюз3377100 0.0 103334
05:00+2з3675100 0.0 1034146
08:00+4з3568100 0.0 1034215
11:00+7з3456100 0.0 1034642
14:00+9з345012 0.0 10331170
17:00+9з355537 0.0 1032240
20:00+4з347165 0.0 103346